Weather History for Kremmling, CO

Change the Weather History Date:

Tuesday, December 11, 2012

  Actual Average (KEGE) Record (KEGE)
Temperature  
Mean Temperature 22 °F -  
Max Temperature 30 °F 37 °F 53 °F (1981)
Min Temperature 14 °F 7 °F -25 °F (1972)
Degree Days  
Heating Degree Days 43    
Moisture  
Dew Point 11 °F    
Average Humidity 65    
Maximum Humidity 79    
Minimum Humidity 47    
Precipitation  
Precipitation 0.00 in - - ()
Sea Level Pressure  
Sea Level Pressure 29.96 in    
Wind  
Wind Speed 7 mph (WSW)    
Max Wind Speed 16 mph    
Max Gust Speed 24 mph    
Averages and records for this station are not official NWS values.
T = Trace of Precipitation, MM = Missing Value Source: NWS Daily Summary

Daily Weather History Graph

Daily Weather History Graph

Search for Another Location

Airport:

Trip Planner

Search our weather history database for the weather conditions in past years. The results will help you decide how hot, cold, wet, or windy it might be!

Date:

Astronomy

Dec. 11, 2012 Rise Set
Actual Time 7:17 AM MST 4:40 PM MST
Civil Twilight 6:47 AM MST 5:10 PM MST
Nautical Twilight 6:13 AM MST 5:44 PM MST
Astronomical Twilight 5:40 AM MST 6:17 PM MST
Moon 5:15 AM MST (12/11) 3:21 PM MST (12/11)
Length of Visible Light 10h 23m
Length of Day
9h 22m
Waning Crescent, 4% of the Moon is Illuminated
Dec 11
Waning Crescent
Dec 13
New
Dec 19
First Quarter
Dec 28
Full
Jan 4
Last Quarter

Hourly Weather History & Observations

Time (MST) Temp. Windchill Dew Point Humidity Pressure Visibility Wind Dir Wind Speed Gust Speed Precip Events Conditions
12:15 AM 19.4 °F 11.5 °F 12.2 °F 74% 29.95 in - West 5.8 mph - N/A Snow Light Snow
12:35 AM 17.6 °F - 10.4 °F 73% 29.95 in - Calm Calm - N/A Snow Light Snow
12:54 AM 17.6 °F - 10.4 °F 73% 29.94 in - Calm Calm - N/A   Mostly Cloudy
1:14 AM 17.6 °F 6.4 °F 10.4 °F 73% 29.94 in - West 9.2 mph - N/A   Overcast
1:35 AM 17.6 °F 8.2 °F 12.2 °F 79% 29.94 in - WSW 6.9 mph - N/A Snow Light Snow
1:55 AM 17.6 °F 7.3 °F 12.2 °F 79% 29.96 in - West 8.1 mph - N/A Snow Light Snow
2:15 AM 17.6 °F - 12.2 °F 79% 29.96 in - Calm Calm - N/A Snow Light Snow
2:35 AM 17.6 °F 12.3 °F 12.2 °F 79% 29.96 in - SW 3.5 mph - N/A Snow Light Snow
2:55 AM 17.6 °F 9.3 °F 12.2 °F 79% 29.96 in - WSW 5.8 mph - N/A Snow Light Snow
3:15 AM 17.6 °F 8.2 °F 12.2 °F 79% 29.94 in - WSW 6.9 mph - N/A Snow Light Snow
3:35 AM 14.0 °F 6.5 °F 8.6 °F 79% 29.94 in - West 4.6 mph - N/A   Overcast
3:55 AM 17.6 °F 5.7 °F 10.4 °F 73% 29.94 in - West 10.4 mph - N/A Snow Light Snow
4:15 AM 17.6 °F 6.4 °F 10.4 °F 73% 29.94 in - West 9.2 mph - N/A   Overcast
4:35 AM 17.6 °F 7.3 °F 10.4 °F 73% 29.94 in - West 8.1 mph - N/A Snow Light Snow
5:15 AM 17.6 °F 7.3 °F 10.4 °F 73% 29.94 in - West 8.1 mph - N/A Snow Light Snow
5:35 AM 17.6 °F 7.3 °F 10.4 °F 73% 29.94 in - West 8.1 mph - N/A Snow Light Snow
5:55 AM 17.6 °F 4.3 °F 10.4 °F 73% 29.95 in - West 12.7 mph - N/A Snow Light Snow
6:15 AM 15.8 °F 1.4 °F 10.4 °F 79% 29.95 in - WSW 13.8 mph 19.6 mph N/A Snow Light Snow
6:35 AM 14.0 °F 6.5 °F 8.6 °F 79% 29.95 in - WNW 4.6 mph - N/A   Mostly Cloudy
6:55 AM 17.6 °F 2.7 °F 10.4 °F 73% 29.96 in - WSW 16.1 mph 23.0 mph N/A Snow Light Snow
7:15 AM 17.6 °F 12.3 °F 10.4 °F 73% 29.97 in - West 3.5 mph - N/A Snow Light Snow
7:34 AM 17.6 °F 8.2 °F 10.4 °F 73% 29.97 in - West 6.9 mph - N/A   Overcast
7:55 AM 17.6 °F 5.7 °F 10.4 °F 73% 29.97 in - WSW 10.4 mph - N/A Snow Light Snow
8:15 AM 17.6 °F 5.7 °F 10.4 °F 73% 29.98 in - West 10.4 mph - N/A   Overcast
8:35 AM 19.4 °F 6.0 °F 10.4 °F 68% 29.98 in - WSW 13.8 mph 17.3 mph N/A Snow Light Snow
8:55 AM 19.4 °F 7.9 °F 10.4 °F 68% 29.99 in - WSW 10.4 mph - N/A   Overcast
9:14 AM 19.4 °F 5.0 °F 12.2 °F 74% 30.00 in - WSW 16.1 mph - N/A   Overcast
9:35 AM 19.4 °F 7.2 °F 12.2 °F 74% 30.01 in - WSW 11.5 mph 18.4 mph N/A Snow Light Snow
9:55 AM 21.2 °F 9.5 °F 12.2 °F 68% 30.02 in - WSW 11.5 mph - N/A Snow Light Snow
10:15 AM 21.2 °F 7.3 °F 12.2 °F 68% 30.02 in - WSW 16.1 mph - N/A Snow Light Snow
10:35 AM 21.2 °F 8.3 °F 12.2 °F 68% 30.02 in - WSW 13.8 mph - N/A Snow Light Snow
10:55 AM 23.0 °F 10.1 °F 12.2 °F 63% 30.02 in - WSW 15.0 mph - N/A Snow Light Snow
11:15 AM 23.0 °F 11.1 °F 12.2 °F 63% 30.02 in - WSW 12.7 mph 18.4 mph N/A   Overcast
11:34 AM 28.4 °F 17.0 °F 14.0 °F 55% 30.00 in - WSW 15.0 mph - N/A   Overcast
11:54 AM 28.4 °F 17.5 °F 12.2 °F 51% 29.99 in - WSW 13.8 mph 18.4 mph N/A   Scattered Clouds
12:14 PM 28.4 °F 17.0 °F 12.2 °F 51% 29.99 in - WSW 15.0 mph 24.2 mph N/A   Clear
12:34 PM 28.4 °F 17.0 °F 12.2 °F 51% 29.98 in - WSW 15.0 mph 21.9 mph N/A   Clear
12:55 PM 30.2 °F 20.2 °F 14.0 °F 51% 29.97 in - WSW 12.7 mph 17.3 mph N/A   Scattered Clouds
1:14 PM 30.2 °F 18.9 °F 14.0 °F 51% 29.96 in - WSW 16.1 mph 21.9 mph N/A   Scattered Clouds
1:35 PM 28.4 °F 18.5 °F 14.0 °F 55% 29.96 in - WSW 11.5 mph 20.7 mph N/A   Mostly Cloudy
1:55 PM 28.4 °F 16.6 °F 14.0 °F 55% 29.96 in - WSW 16.1 mph - N/A   Overcast
2:15 PM 30.2 °F 18.9 °F 15.8 °F 55% 29.96 in - WSW 16.1 mph - N/A   Overcast
2:35 PM 30.2 °F 19.3 °F 14.0 °F 51% 29.96 in - WSW 15.0 mph 21.9 mph N/A   Overcast
2:55 PM 30.2 °F 19.8 °F 14.0 °F 51% 29.95 in - WSW 13.8 mph 20.7 mph N/A   Mostly Cloudy
3:15 PM 28.4 °F 21.2 °F 12.2 °F 51% 29.95 in - West 6.9 mph 10.4 mph N/A   Scattered Clouds
3:35 PM 30.2 °F 26.7 °F 12.2 °F 47% 29.95 in - WSW 3.5 mph - N/A   Clear
3:55 PM 24.8 °F 20.5 °F 10.4 °F 54% 29.95 in - West 3.5 mph - N/A   Clear
4:15 PM 26.6 °F 19.1 °F 12.2 °F 55% 29.96 in - WSW 6.9 mph - N/A   Clear
4:35 PM 24.8 °F 20.5 °F 10.4 °F 54% 29.95 in - SW 3.5 mph - N/A   Clear
4:55 PM 23.0 °F - 10.4 °F 59% 29.96 in - Calm Calm - N/A   Clear
5:15 PM 23.0 °F 18.4 °F 10.4 °F 59% 29.96 in - West 3.5 mph - N/A   Clear
5:35 PM 21.2 °F - 8.6 °F 58% 29.96 in - Calm Calm - N/A   Clear
5:55 PM 19.4 °F - 8.6 °F 63% 29.96 in - Calm Calm - N/A   Clear
6:15 PM 19.4 °F - 8.6 °F 63% 29.96 in - Calm Calm - N/A   Scattered Clouds
6:35 PM 23.0 °F 13.9 °F 8.6 °F 54% 29.95 in - WSW 8.1 mph - N/A   Overcast
6:55 PM 23.0 °F 12.4 °F 8.6 °F 54% 29.94 in - SW 10.4 mph - N/A   Overcast
7:15 PM 24.8 °F 16.9 °F 10.4 °F 54% 29.96 in - SW 6.9 mph - N/A   Overcast
7:35 PM 24.8 °F 16.1 °F 10.4 °F 54% 29.96 in - SSW 8.1 mph - N/A   Overcast
7:55 PM 24.8 °F 12.9 °F 10.4 °F 54% 29.94 in - SW 13.8 mph - N/A   Overcast
8:15 PM 24.8 °F 16.9 °F 10.4 °F 54% 29.94 in - SW 6.9 mph - N/A   Overcast
8:35 PM 23.0 °F 13.9 °F 10.4 °F 59% 29.94 in - WSW 8.1 mph - N/A   Scattered Clouds
8:55 PM 23.0 °F 17.0 °F 10.4 °F 59% 29.93 in - South 4.6 mph - N/A   Clear
9:15 PM 21.2 °F - 8.6 °F 58% 29.94 in - Calm Calm - N/A   Clear
9:35 PM 21.2 °F 16.4 °F 10.4 °F 63% 29.95 in - West 3.5 mph - N/A   Clear
9:55 PM 21.2 °F 14.9 °F 10.4 °F 63% 29.94 in - West 4.6 mph - N/A   Clear
10:15 PM 21.2 °F 13.6 °F 10.4 °F 63% 29.95 in - West 5.8 mph - N/A   Clear
10:35 PM 15.8 °F 7.2 °F 6.8 °F 68% 29.96 in - East 5.8 mph - N/A   Clear
10:55 PM 17.6 °F 12.3 °F 8.6 °F 68% 29.96 in - SE 3.5 mph - N/A   Clear
11:14 PM 19.4 °F - 10.4 °F 68% 29.95 in - Calm Calm - N/A   Clear
11:35 PM 19.4 °F 9.5 °F 8.6 °F 63% 29.95 in - SE 8.1 mph - N/A   Clear
11:55 PM 17.6 °F - 8.6 °F 68% 29.94 in - Calm Calm - N/A   Scattered Clouds